Date String (YYYY-MM-DD hh:mm:ss) UTC,Instrument flags,Ambient pressure (hPa),Sample flow (lpm),Bypass flow (lpm),Sample temperature (°C),Ambient temperature (°C),ASC tube jacket temperature (°C),LED temperature (°C),Box temperature (°C),Sample RH (%),Span deviation,Mass concentration (μg/m³),Mass concentration (μg/m³),Mass concentration (μg/m³)
DateTimeUTC,F1_M11,P_M11,Q1_M11,Q2_M11,T1_M11,T2_M11,T3_M11,T4_M11,T5_M11,U1_M11,ZSPAN_M11,X2_M11,X0_M11,X1_M11
2021-12-30 22:00:00,,0807.6,5.00,0.00,22.2,21.2,00.0,31.3,23.8,07.5,0000.0,0000.93,0006.70,0000.28
2021-12-30 22:01:00,,0807.9,5.00,0.00,22.1,21.2,00.0,31.3,23.8,07.5,0000.0,0000.92,0006.49,0000.29
2021-12-30 22:02:00,,0807.7,5.00,0.00,22.1,21.3,00.0,31.2,23.8,07.6,0000.0,0000.90,0006.43,0000.30
2021-12-30 22:03:00,,0807.6,5.00,0.00,22.1,21.3,00.0,31.2,23.8,07.6,0000.0,0000.96,0007.51,0000.31
2021-12-30 22:04:00,,0807.7,4.99,0.00,22.1,21.4,00.0,31.2,23.8,07.6,0000.0,0001.02,0008.19,0000.32
2021-12-30 22:05:00,,0807.7,5.01,0.00,22.1,21.4,00.0,31.2,23.8,07.6,0000.0,0001.02,0008.45,0000.32
2021-12-30 22:06:00,,0807.5,5.00,0.00,22.1,21.4,00.0,31.2,23.8,07.6,0000.0,0000.97,0007.94,0000.32
2021-12-30 22:07:00,,0807.3,4.99,0.00,22.1,21.4,00.0,31.2,23.8,07.5,0000.0,0000.95,0008.05,0000.32
2021-12-30 22:08:00,,0807.5,5.00,0.00,22.1,21.4,00.0,31.2,23.8,07.6,0000.0,0000.95,0008.49,0000.31
2021-12-30 22:09:00,,0807.6,5.01,0.00,22.1,21.4,00.0,31.2,23.8,07.6,0000.0,0000.92,0008.02,0000.30
2021-12-30 22:10:00,,0807.1,5.00,0.00,22.1,21.4,00.0,31.2,23.8,07.7,0000.0,0000.98,0009.04,0000.31
2021-12-30 22:11:00,,0807.3,4.99,0.00,22.1,21.3,00.0,31.2,23.8,07.7,0000.0,0001.04,0009.72,0000.31
2021-12-30 22:12:00,,0807.4,4.99,0.00,22.1,21.4,00.0,31.1,23.8,07.8,0000.0,0001.04,0010.22,0000.31
2021-12-30 22:13:00,,0806.8,5.01,0.00,22.1,21.4,00.0,31.1,23.8,07.8,0000.0,0001.07,0010.14,0000.34
2021-12-30 22:14:00,,0806.1,5.01,0.00,22.1,21.3,00.0,31.1,23.8,07.7,0000.0,0001.04,0009.81,0000.34
2021-12-30 22:15:00,,0806.9,5.00,0.00,22.1,21.2,00.0,31.1,23.7,07.6,0000.0,0001.12,0010.40,0000.33
2021-12-30 22:16:00,,0807.6,5.00,0.00,22.1,21.2,00.0,31.1,23.8,07.6,0000.0,0001.12,0010.36,0000.33
2021-12-30 22:17:00,,0807.4,4.99,0.00,22.0,21.2,00.0,31.1,23.7,07.6,0000.0,0001.18,0010.53,0000.33
2021-12-30 22:18:00,,0807.6,4.99,0.00,22.0,21.2,00.0,31.1,23.7,07.6,0000.0,0001.19,0010.40,0000.31
2021-12-30 22:19:00,,0807.9,5.02,0.00,22.0,21.3,00.0,31.1,23.7,07.6,0000.0,0001.15,0009.94,0000.30
2021-12-30 22:20:00,,0808.1,5.01,0.00,22.1,21.7,00.0,31.1,23.8,07.5,0000.0,0001.16,0010.04,0000.28
2021-12-30 22:21:00,,0807.5,5.00,0.00,22.2,22.6,00.0,31.2,24.1,07.5,0000.0,0001.16,0008.61,0000.26
2021-12-30 22:22:00,,0808.2,5.00,0.00,22.4,23.2,00.0,31.2,24.4,07.4,0000.0,0001.07,0007.83,0000.25
2021-12-30 22:23:00,,0807.6,4.99,0.00,22.4,23.0,00.0,31.2,24.4,07.5,0000.0,0001.01,0007.50,0000.24
2021-12-30 22:24:00,,0807.3,5.01,0.00,22.4,22.7,00.0,31.3,24.3,07.3,0000.0,0000.94,0008.05,0000.21
2021-12-30 22:25:00,,0807.7,4.99,0.00,22.4,22.6,00.0,31.3,24.2,07.3,0000.0,0000.88,0007.54,0000.19
2021-12-30 22:26:00,,0807.4,5.00,0.00,22.4,22.4,00.0,31.3,24.2,07.4,0000.0,0000.80,0005.43,0000.23
2021-12-30 22:27:00,,0807.6,5.00,0.00,22.4,22.3,00.0,31.3,24.2,07.5,0000.0,0000.88,0004.75,0000.33
2021-12-30 22:28:00,,0807.7,5.01,0.00,22.4,22.2,00.0,31.3,24.2,07.4,0000.0,0000.90,0004.26,0000.44
2021-12-30 22:29:00,,0807.5,4.99,0.00,22.4,22.1,00.0,31.3,24.2,07.4,0000.0,0000.94,0004.60,0000.49
2021-12-30 22:30:00,,0807.3,5.01,0.00,22.4,22.1,00.0,31.3,24.1,07.3,0000.0,0000.96,0005.44,0000.52
2021-12-30 22:31:00,,0807.1,4.99,0.00,22.4,22.0,00.0,31.3,24.1,07.4,0000.0,0000.95,0005.26,0000.54
2021-12-30 22:32:00,,0807.2,4.99,0.00,22.4,21.9,00.0,31.3,24.2,07.4,0000.0,0000.89,0004.89,0000.56
2021-12-30 22:33:00,,0807.2,5.01,0.00,22.4,21.8,00.0,31.3,24.2,07.4,0000.0,0000.97,0005.84,0000.59
2021-12-30 22:34:00,,0807.0,4.99,0.00,22.4,21.8,00.0,31.4,24.1,07.4,0000.0,0001.08,0006.64,0000.59
2021-12-30 22:35:00,,0807.2,5.00,0.00,22.4,21.7,00.0,31.4,24.1,07.4,0000.0,0001.13,0005.23,0000.58
2021-12-30 22:36:00,,0807.0,5.00,0.00,22.4,21.7,00.0,31.4,24.1,07.5,0000.0,0001.17,0005.51,0000.59
2021-12-30 22:37:00,,0807.0,4.99,0.00,22.4,21.7,00.0,31.4,24.1,07.4,0000.0,0001.18,0005.57,0000.59
2021-12-30 22:38:00,,0807.0,5.01,0.00,22.4,21.6,00.0,31.4,24.1,07.3,0000.0,0001.12,0005.58,0000.49
2021-12-30 22:39:00,,0807.1,5.00,0.00,22.4,21.6,00.0,31.4,24.1,07.4,0000.0,0001.06,0005.71,0000.38
2021-12-30 22:40:00,,0807.0,4.99,0.00,22.3,21.6,00.0,31.4,24.0,07.5,0000.0,0001.02,0005.70,0000.30
2021-12-30 22:41:00,,0806.9,5.00,0.00,22.3,21.6,00.0,31.4,24.0,07.4,0000.0,0001.01,0005.53,0000.27
2021-12-30 22:42:00,,0807.0,5.00,0.00,22.3,21.6,00.0,31.4,24.1,07.4,0000.0,0001.08,0006.74,0000.27
2021-12-30 22:43:00,,0807.4,4.99,0.00,22.3,21.7,00.0,31.4,24.1,07.4,0000.0,0001.11,0007.27,0000.24
2021-12-30 22:44:00,,0807.3,5.01,0.00,22.3,21.7,00.0,31.3,24.1,07.3,0000.0,0001.07,0006.72,0000.22
2021-12-30 22:45:00,,0807.1,5.00,0.00,22.3,21.7,00.0,31.3,24.0,07.3,0000.0,0001.02,0006.18,0000.21
2021-12-30 22:46:00,,0807.2,5.00,0.00,22.3,21.7,00.0,31.3,24.0,07.3,0000.0,0000.98,0006.28,0000.21
2021-12-30 22:47:00,,0807.5,5.00,0.00,22.3,21.7,00.0,31.3,24.1,07.2,0000.0,0000.99,0006.17,0000.20
2021-12-30 22:48:00,,0807.6,4.99,0.00,22.3,21.7,00.0,31.3,24.1,07.1,0000.0,0001.03,0007.13,0000.20
2021-12-30 22:49:00,,0807.6,5.01,0.00,22.3,21.7,00.0,31.3,24.0,07.2,0000.0,0001.04,0007.21,0000.20
2021-12-30 22:50:00,,0807.3,5.01,0.00,22.3,21.6,00.0,31.3,23.9,07.3,0000.0,0001.05,0007.31,0000.19
2021-12-30 22:51:00,,0807.5,5.00,0.00,22.3,21.6,00.0,31.3,24.0,07.2,0000.0,0001.07,0007.30,0000.19
2021-12-30 22:52:00,,0807.6,5.00,0.00,22.3,21.6,00.0,31.3,24.0,07.3,0000.0,0001.13,0007.11,0000.20
2021-12-30 22:53:00,,0807.6,5.01,0.00,22.3,21.7,00.0,31.3,24.0,07.3,0000.0,0001.09,0007.11,0000.20
2021-12-30 22:54:00,,0807.4,4.99,0.00,22.3,21.7,00.0,31.3,24.1,07.1,0000.0,0001.03,0007.56,0000.20
2021-12-30 22:55:00,,0807.6,5.00,0.00,22.3,21.7,00.0,31.3,24.0,07.1,0000.0,0001.03,0007.45,0000.20
2021-12-30 22:56:00,,0807.5,5.00,0.00,22.3,21.7,00.0,31.3,24.0,07.1,0000.0,0001.00,0008.33,0000.20
2021-12-30 22:57:00,,0807.5,5.01,0.00,22.3,21.7,00.0,31.3,24.0,07.4,0000.0,0001.03,0008.32,0000.20
2021-12-30 22:58:00,,0807.6,4.99,0.00,22.3,21.7,00.0,31.3,24.0,07.5,0000.0,0001.04,0008.32,0000.20
2021-12-30 22:59:00,,0807.4,5.00,0.00,22.3,21.7,00.0,31.3,24.0,07.6,0000.0,0001.01,0007.77,0000.20
